User: anonymous   Login
Location: Unspecified
(0.0000°N, 0.0000°E)
Time: 03:34:16
(UTC+00:00)
Language:

Metsat - Orbit

View from above orbital plane
View from above orbital plane
View from above satellite
View from above satellite

Ground track
Ground track

The orbit data is extracted from the following two-line orbital elements,

1 26382U 00032A   17171.19855090 -.00000100 +00000-0 +00000-0 0  9992
2 26382 009.9408 040.2901 0005100 235.5015 058.3770 01.00104619062130
Epoch (UTC): 20 June 2017 04:45:54
Eccentricity: 0.0005100
inclination: 9.9408°
perigee height: 35811 km
apogee height: 35854 km
right ascension of ascending node: 40.2901°
argument of perigee: 235.5015°
revolutions per day: 1.00104619
mean anomaly at epoch: 58.3770°
orbit number at epoch: 6213

The dashed part of the orbit path shows where the satellite is in the earth's shadow,  

DLR